Location: Dumpton Point
(51.3500°N, 1.4433°E)
Time: 07:02:34
(UTC+00:00)

Cosmos 1743 Rocket - Pass Details

Date: 09 April 2020
Orbit: 603 x 633 km, 82.6° (Epoch: 02 June)

Event Time Altitude Azimuth Distance (km) Brightness Sun altitude
Rises 21:27:26 0° 354° (N) 2,941 7.9 -22.6°
Reaches altitude 10° 21:29:49 10° 3° (N) 2,030 6.8 -22.9°
Enters shadow 21:33:45 38° 62° (ENE) 980 4.4 -23.3°
